Regional Weather Roundup
Issued by NWS

Home | Current Version | Previous Version | Text Only | Print | Product List | Glossary Off
Versions: 1 2 3 4 5 6 7 8 9 10 11 12 13 14 15 16 17 18 19 20 21 22 23 24 25 26 27 28 29 30 31 32 33 34 35 36 37 38 39 40 41 42 43 44 45 46 47 48 49 50

000
ASUS45 KCYS 171810
RWRWY

WYOMING REGIONAL WEATHER ROUNDUP
NATIONAL WEATHER SERVICE CHEYENNE WY
1200 PM MDT WED SEP 17 2014

NOTE:  "FAIR" INDICATES FEW OR NO CLOUDS BELOW 12,000 FEET
WITH NO SIGNIFICANT WEATHER AND/OR OBSTRUCTIONS TO VISIBILITY.

WYZ001-171900-
YELLOWSTONE NATIONAL PARK

CITY           SKY/WX    TMP DP  RH WIND       PRES   REMARKS
LK YELLOWSTONE   N/A     56  41  57 E3        30.25F
6HR MIN TEMP:  33; 6HR MAX TEMP:  57;

W YELLOWSTONE  NOT AVBL

$$
WYZ002>013-054>058-071-098>099-171900-
NORTHERN WYOMING

CITY           SKY/WX    TMP DP  RH WIND       PRES   REMARKS
JACKSON        SUNNY     66  45  45 CALM      30.16F
CODY           SUNNY     75  45  33 S6        30.03S
GREYBULL       SUNNY     74  46  36 VRB5      29.98F
6HR MIN TEMP:  51; 6HR MAX TEMP:  74;

WORLAND        MOSUNNY   73  49  42 N3        30.00F
6HR MIN TEMP:  48; 6HR MAX TEMP:  73;

SHERIDAN       SUNNY     81  47  30 NW7       29.97S
6HR MIN TEMP:  56; 6HR MAX TEMP:  81; 6HR PCP: TRACE;

BUFFALO        LGT RAIN  78  42  27 SE13      30.03S
6HR MIN TEMP:  58; 6HR MAX TEMP:  78; 6HR PCP: TRACE;

GILLETTE       MOSUNNY   80  42  25 CALM      30.00S
6HR MIN TEMP:  59; 6HR MAX TEMP:  81;

HULETT         FAIR      77  43  29 MISG      30.00
NEWCASTLE      FAIR      77  36  22 SE5       30.01

$$
WYZ014>020-022>026-101>103-171900-
CENTRAL WYOMING

CITY           SKY/WX    TMP DP  RH WIND       PRES   REMARKS
BIG PINEY      MOSUNNY   68  44  42 N8        30.24F
6HR MIN TEMP:  40; 6HR MAX TEMP:  68; 6HR PCP:  0.02;

PINEDALE       MOCLDY    64  45  48 CALM      30.24F
DUBOIS         FAIR      70  36  28 N8        30.18F
LANDER         CLOUDY    69  49  48 S6        30.10F
6HR MIN TEMP:  50; 6HR MAX TEMP:  72; 6HR PCP: TRACE;

RIVERTON       CLOUDY    70  42  36 SW7       30.10F
6HR MIN TEMP:  51; 6HR MAX TEMP:  71; 6HR PCP:  0.02;

CASPER         PTSUNNY   79  39  23 SW12      30.07F
6HR MIN TEMP:  51; 6HR MAX TEMP:  79;

DOUGLAS        SUNNY     80  39  23 CALM      30.04F
6HR MIN TEMP:  47; 6HR MAX TEMP:  81; 6HR PCP: TRACE;


$$
WYZ021-027>030-104>119-171900-
SOUTHERN WYOMING

CITY           SKY/WX    TMP DP  RH WIND       PRES   REMARKS
EVANSTON       SUNNY     74  43  32 VRB5      30.22R
6HR MIN TEMP:  55; 6HR MAX TEMP:  76;

KEMMERER       CLEAR     70  37  30 NE15      30.25S
FORT BRIDGER   FAIR      71  41  33 NE13      30.27S
ROCK SPRINGS   MOSUNNY   72  38  29 NW14      30.22S
6HR MIN TEMP:  49; 6HR MAX TEMP:  72;

DIXON          FAIR      77  42  28 SW7G16    30.21F
RAWLINS        PTSUNNY   74  36  25 N16G23    30.20R
6HR MIN TEMP:  45; 6HR MAX TEMP:  77;

LARAMIE        SUNNY     76  36  23 VRB5      30.20F
6HR MIN TEMP:  43; 6HR MAX TEMP:  76;

CHEYENNE       SUNNY     82  36  19 N8        30.12F
6HR MIN TEMP:  50; 6HR MAX TEMP:  83;

TORRINGTON     SUNNY     80  43  26 VRB3      30.00R
6HR MIN TEMP:  50; 6HR MAX TEMP:  81;

PINE BLUFFS    FAIR      81  37  21 N6        30.07F

$$


USA.gov is the U.S. government's official web portal to all federal, state and local government web resources and services.